User: anonymous
Location: Vancouver
(49.2500°N, 123.1330°W)
Time: 05:09:49
(UTC-07:00)
Language:

YAOGAN 6 - Orbit

View from above orbital plane
View from above orbital plane
View from above satellite
View from above satellite

Ground track
Ground track

The orbit data is extracted from the following two-line orbital elements,

1 34839U 09021A   14111.19671324  .00010899  00000-0  52525-3 0  5580
2 34839 097.2941 188.9543 0003173 095.6017 349.1754 15.18888229277068
Epoch (UTC): 21 April 2014 04:43:16
Eccentricity: 0.0003173
inclination: 97.2941°
perigee height: 507 km
apogee height: 511 km
right ascension of ascending node: 188.9543°
argument of perigee: 95.6017°
revolutions per day: 15.18888229
mean anomaly at epoch: 349.1754°
orbit number at epoch: 27706

The dashed part of the orbit path shows where the satellite is in the earth's shadow,  

DLR